Year,Month,Day,Hour,Minute,Value (Times are PST for windgust in km/hr)
2013,03,20,00,00,12.90
2013,03,20,00,01,9.60
2013,03,20,00,02,16.10
2013,03,20,00,03,17.70
2013,03,20,00,04,4.80
2013,03,20,00,05,9.60
2013,03,20,00,06,11.30
2013,03,20,00,07,6.40
2013,03,20,00,08,3.20
2013,03,20,00,09,4.80
2013,03,20,00,10,8.10
2013,03,20,00,11,6.40
2013,03,20,00,12,8.10
2013,03,20,00,13,1.60
2013,03,20,00,14,4.80
2013,03,20,00,15,6.40
2013,03,20,00,16,4.80
2013,03,20,00,17,17.70
2013,03,20,00,18,8.10
2013,03,20,00,19,3.20
2013,03,20,00,20,4.80
2013,03,20,00,21,4.80
2013,03,20,00,22,3.20
2013,03,20,00,23,1.60
2013,03,20,00,24,1.60
2013,03,20,00,25,8.10
2013,03,20,00,26,4.80
2013,03,20,00,27,4.80
2013,03,20,00,28,3.20
2013,03,20,00,29,9.60
2013,03,20,00,30,9.60
2013,03,20,00,31,8.10
2013,03,20,00,33,14.50
2013,03,20,00,34,14.50
2013,03,20,00,35,14.50
2013,03,20,00,36,6.40
2013,03,20,00,37,3.20
2013,03,20,00,38,8.10
2013,03,20,00,39,3.20
2013,03,20,00,40,9.60
2013,03,20,00,41,4.80
2013,03,20,00,42,4.80
2013,03,20,00,43,8.10
2013,03,20,00,44,9.60
2013,03,20,00,45,6.40
2013,03,20,00,46,4.80
2013,03,20,00,47,6.40
2013,03,20,00,48,8.10
2013,03,20,00,49,1.60
2013,03,20,00,50,14.50
2013,03,20,00,51,6.40
2013,03,20,00,52,1.60
2013,03,20,00,53,3.20
2013,03,20,00,54,11.30
2013,03,20,00,55,4.80
2013,03,20,00,56,9.60
2013,03,20,00,57,4.80
2013,03,20,00,58,4.80
2013,03,20,00,59,6.40
2013,03,20,01,00,6.40
2013,03,20,01,01,8.10
2013,03,20,01,02,8.10
2013,03,20,01,03,9.60
2013,03,20,01,04,17.70
2013,03,20,01,05,9.60
2013,03,20,01,06,6.40
2013,03,20,01,07,9.60
2013,03,20,01,08,8.10
2013,03,20,01,09,11.30
2013,03,20,01,10,8.10
2013,03,20,01,11,6.40
2013,03,20,01,12,1.60
2013,03,20,01,13,4.80
2013,03,20,01,14,14.50
2013,03,20,01,15,12.90
2013,03,20,01,16,6.40
2013,03,20,01,17,3.20
2013,03,20,01,18,3.20
2013,03,20,01,19,1.60
2013,03,20,01,20,6.40
2013,03,20,01,21,9.60
2013,03,20,01,22,8.10
2013,03,20,01,23,9.60
2013,03,20,01,24,11.30
2013,03,20,01,25,8.10
2013,03,20,01,26,11.30
2013,03,20,01,27,8.10
2013,03,20,01,28,4.80
2013,03,20,01,29,9.60
2013,03,20,01,30,3.20
2013,03,20,01,32,9.60
2013,03,20,01,33,8.10
2013,03,20,01,34,6.40
2013,03,20,01,35,6.40
2013,03,20,01,36,9.60
2013,03,20,01,37,9.60
2013,03,20,01,38,6.40
2013,03,20,01,39,6.40
2013,03,20,01,40,4.80
2013,03,20,01,41,6.40
2013,03,20,01,42,6.40
2013,03,20,01,43,1.60
2013,03,20,01,44,6.40
2013,03,20,01,45,9.60
2013,03,20,01,46,8.10
2013,03,20,01,47,6.40
2013,03,20,01,48,3.20
2013,03,20,01,49,4.80
2013,03,20,01,50,3.20
2013,03,20,01,52,1.60
2013,03,20,01,54,3.20
2013,03,20,01,55,4.80
2013,03,20,01,56,3.20
2013,03,20,01,57,3.20
2013,03,20,01,58,1.60
2013,03,20,02,03,4.80
2013,03,20,02,04,1.60
2013,03,20,02,06,3.20
2013,03,20,02,07,1.60
2013,03,20,02,08,6.40
2013,03,20,02,09,3.20
2013,03,20,02,10,4.80
2013,03,20,02,12,3.20
2013,03,20,02,13,4.80
2013,03,20,02,14,6.40
2013,03,20,02,15,4.80
2013,03,20,02,16,3.20
2013,03,20,02,17,9.60
2013,03,20,02,18,6.40
2013,03,20,02,19,6.40
2013,03,20,02,21,1.60
2013,03,20,02,22,4.80
2013,03,20,02,23,11.30
2013,03,20,02,24,4.80
2013,03,20,02,25,1.60
2013,03,20,02,26,3.20
2013,03,20,02,27,8.10
2013,03,20,02,28,8.10
2013,03,20,02,29,3.20
2013,03,20,02,30,3.20
2013,03,20,02,32,1.60
2013,03,20,02,33,1.60
2013,03,20,02,34,3.20
2013,03,20,02,35,3.20
2013,03,20,02,38,9.60
2013,03,20,02,39,8.10
2013,03,20,02,40,6.40
2013,03,20,02,41,4.80
2013,03,20,02,42,4.80
2013,03,20,02,43,1.60
2013,03,20,02,44,4.80
2013,03,20,02,45,8.10
2013,03,20,02,46,4.80
2013,03,20,02,47,3.20
2013,03,20,02,48,3.20
2013,03,20,02,50,8.10
2013,03,20,02,51,8.10
2013,03,20,02,52,8.10
2013,03,20,02,53,8.10
2013,03,20,02,54,9.60
2013,03,20,02,55,11.30
2013,03,20,02,56,9.60
2013,03,20,02,57,6.40
2013,03,20,02,58,4.80
2013,03,20,02,59,3.20
2013,03,20,03,00,3.20
2013,03,20,03,01,4.80
2013,03,20,03,02,1.60
2013,03,20,03,03,3.20
2013,03,20,03,04,3.20
2013,03,20,03,06,3.20
2013,03,20,03,07,4.80
2013,03,20,03,08,6.40
2013,03,20,03,09,6.40
2013,03,20,03,10,9.60
2013,03,20,03,11,11.30
2013,03,20,03,12,9.60
2013,03,20,03,13,6.40
2013,03,20,03,14,4.80
2013,03,20,03,15,4.80
2013,03,20,03,16,4.80
2013,03,20,03,17,9.60
2013,03,20,03,18,11.30
2013,03,20,03,19,9.60
2013,03,20,03,20,4.80
2013,03,20,03,21,3.20
2013,03,20,03,22,3.20
2013,03,20,03,24,3.20
2013,03,20,03,25,4.80
2013,03,20,03,26,8.10
2013,03,20,03,27,3.20
2013,03,20,03,28,6.40
2013,03,20,03,29,4.80
2013,03,20,03,30,6.40
2013,03,20,03,31,8.10
2013,03,20,03,32,14.50
2013,03,20,03,33,9.60
2013,03,20,03,34,6.40
2013,03,20,03,35,6.40
2013,03,20,03,36,4.80
2013,03,20,03,37,9.60
2013,03,20,03,38,8.10
2013,03,20,03,39,6.40
2013,03,20,03,40,6.40
2013,03,20,03,41,4.80
2013,03,20,03,42,8.10
2013,03,20,03,43,9.60
2013,03,20,03,44,4.80
2013,03,20,03,45,4.80
2013,03,20,03,46,9.60
2013,03,20,03,47,9.60
2013,03,20,03,48,6.40
2013,03,20,03,49,6.40
2013,03,20,03,50,3.20
2013,03,20,03,51,1.60
2013,03,20,03,52,3.20
2013,03,20,03,53,1.60
2013,03,20,03,54,11.30
2013,03,20,03,55,8.10
2013,03,20,03,56,4.80
2013,03,20,03,57,3.20
2013,03,20,03,58,8.10
2013,03,20,03,59,4.80
2013,03,20,04,02,3.20
2013,03,20,04,03,4.80
2013,03,20,04,04,4.80
2013,03,20,04,05,8.10
2013,03,20,04,06,6.40
2013,03,20,04,07,4.80
2013,03,20,04,08,4.80
2013,03,20,04,09,6.40
2013,03,20,04,10,8.10
2013,03,20,04,11,4.80
2013,03,20,04,12,3.20
2013,03,20,04,13,1.60
2013,03,20,04,14,3.20
2013,03,20,04,15,3.20
2013,03,20,04,16,4.80
2013,03,20,04,17,6.40
2013,03,20,04,18,3.20
2013,03,20,04,19,3.20
2013,03,20,04,20,4.80
2013,03,20,04,21,4.80
2013,03,20,04,23,3.20
2013,03,20,04,25,4.80
2013,03,20,04,26,6.40
2013,03,20,04,27,11.30
2013,03,20,04,28,14.50
2013,03,20,04,29,9.60
2013,03,20,04,30,9.60
2013,03,20,04,31,8.10
2013,03,20,04,32,6.40
2013,03,20,04,33,8.10
2013,03,20,04,34,8.10
2013,03,20,04,35,9.60
2013,03,20,04,36,3.20
2013,03,20,04,37,1.60
2013,03,20,04,38,6.40
2013,03,20,04,39,4.80
2013,03,20,04,40,3.20
2013,03,20,04,41,1.60
2013,03,20,04,42,1.60
2013,03,20,04,43,1.60
2013,03,20,04,44,3.20
2013,03,20,04,45,9.60
2013,03,20,04,46,3.20
2013,03,20,04,47,9.60
2013,03,20,04,48,4.80
2013,03,20,04,49,4.80
2013,03,20,04,50,8.10
2013,03,20,04,51,6.40
2013,03,20,04,52,8.10
2013,03,20,04,53,4.80
2013,03,20,04,54,1.60
2013,03,20,04,55,1.60
2013,03,20,04,56,8.10
2013,03,20,04,57,11.30
2013,03,20,04,58,8.10
2013,03,20,04,59,3.20
2013,03,20,05,00,3.20
2013,03,20,05,01,3.20
2013,03,20,05,02,1.60
2013,03,20,05,03,8.10
2013,03,20,05,04,6.40
2013,03,20,05,05,4.80
2013,03,20,05,06,6.40
2013,03,20,05,07,3.20
2013,03,20,05,08,1.60
2013,03,20,05,09,1.60
2013,03,20,05,10,3.20
2013,03,20,05,11,4.80
2013,03,20,05,12,4.80
2013,03,20,05,13,3.20
2013,03,20,05,14,3.20
2013,03,20,05,15,3.20
2013,03,20,05,17,1.60
2013,03,20,05,18,3.20
2013,03,20,05,19,4.80
2013,03,20,05,20,1.60
2013,03,20,05,21,3.20
2013,03,20,05,22,1.60
2013,03,20,05,23,1.60
2013,03,20,05,24,1.60
2013,03,20,05,25,3.20
2013,03,20,05,26,4.80
2013,03,20,05,27,3.20
2013,03,20,05,28,3.20
2013,03,20,05,29,3.20
2013,03,20,05,30,1.60
2013,03,20,05,31,3.20
2013,03,20,05,32,4.80
2013,03,20,05,33,3.20
2013,03,20,05,34,4.80
2013,03,20,05,35,6.40
2013,03,20,05,36,6.40
2013,03,20,05,37,4.80
2013,03,20,05,38,3.20
2013,03,20,05,39,1.60
2013,03,20,05,40,1.60
2013,03,20,05,42,3.20
2013,03,20,05,43,3.20
2013,03,20,05,44,1.60
2013,03,20,05,45,1.60
2013,03,20,05,48,1.60
2013,03,20,05,49,3.20
2013,03,20,05,51,1.60
2013,03,20,05,52,1.60
2013,03,20,06,00,3.20
2013,03,20,06,02,1.60
2013,03,20,06,03,3.20
2013,03,20,06,04,3.20
2013,03,20,06,05,4.80
2013,03,20,06,06,1.60
2013,03,20,06,07,4.80
2013,03,20,06,08,4.80
2013,03,20,06,09,3.20
2013,03,20,06,10,3.20
2013,03,20,06,11,1.60
2013,03,20,06,14,4.80
2013,03,20,06,15,4.80
2013,03,20,06,17,3.20
2013,03,20,06,18,4.80
2013,03,20,06,19,4.80
2013,03,20,06,20,3.20
2013,03,20,06,21,4.80
2013,03,20,06,22,4.80
2013,03,20,06,23,6.40
2013,03,20,06,24,4.80
2013,03,20,06,25,4.80
2013,03,20,06,26,4.80
2013,03,20,06,27,3.20
2013,03,20,06,30,1.60
2013,03,20,06,31,3.20
2013,03,20,06,32,3.20
2013,03,20,06,35,3.20
2013,03,20,06,36,4.80
2013,03,20,06,37,4.80
2013,03,20,06,38,6.40
2013,03,20,06,39,4.80
2013,03,20,06,40,4.80
2013,03,20,06,41,3.20
2013,03,20,06,42,1.60
2013,03,20,06,43,3.20
2013,03,20,06,44,6.40
2013,03,20,06,45,4.80
2013,03,20,06,46,3.20
2013,03,20,06,47,1.60
2013,03,20,06,48,1.60
2013,03,20,06,51,1.60
2013,03,20,06,52,3.20
2013,03,20,06,53,4.80
2013,03,20,06,54,3.20
2013,03,20,06,55,1.60
2013,03,20,06,56,4.80
2013,03,20,06,57,4.80
2013,03,20,06,58,3.20
2013,03,20,06,59,3.20
2013,03,20,07,00,4.80
2013,03,20,07,01,3.20
2013,03,20,07,02,3.20
2013,03,20,07,03,3.20
2013,03,20,07,04,4.80
2013,03,20,07,05,4.80
2013,03,20,07,06,6.40
2013,03,20,07,07,4.80
2013,03,20,07,08,3.20
2013,03,20,07,09,1.60
2013,03,20,07,11,1.60
2013,03,20,07,14,3.20
2013,03,20,07,15,3.20
2013,03,20,07,16,6.40
2013,03,20,07,17,6.40
2013,03,20,07,18,4.80
2013,03,20,07,19,3.20
2013,03,20,07,20,3.20
2013,03,20,07,21,6.40
2013,03,20,07,22,6.40
2013,03,20,07,23,3.20
2013,03,20,07,27,1.60
2013,03,20,07,28,1.60
2013,03,20,07,30,1.60
2013,03,20,07,31,3.20
2013,03,20,07,32,6.40
2013,03,20,07,33,4.80
2013,03,20,07,34,4.80
2013,03,20,07,35,3.20
2013,03,20,07,39,3.20
2013,03,20,07,40,3.20
2013,03,20,07,41,4.80
2013,03,20,07,42,6.40
2013,03,20,07,43,3.20
2013,03,20,07,44,1.60
2013,03,20,07,46,1.60
2013,03,20,07,47,1.60
2013,03,20,07,50,1.60
2013,03,20,07,51,1.60
2013,03,20,07,52,1.60
2013,03,20,07,57,1.60
2013,03,20,08,04,1.60
2013,03,20,08,05,3.20
2013,03,20,08,06,4.80
2013,03,20,08,07,3.20
2013,03,20,08,08,1.60
2013,03,20,08,11,1.60
2013,03,20,08,49,1.60
2013,03,20,08,50,1.60
2013,03,20,08,51,1.60
2013,03,20,08,52,3.20
2013,03,20,08,57,1.60
2013,03,20,08,58,4.80
2013,03,20,08,59,4.80
2013,03,20,09,00,6.40
2013,03,20,09,01,4.80
2013,03,20,09,02,3.20
2013,03,20,09,03,1.60
2013,03,20,09,04,9.60
2013,03,20,09,05,4.80
2013,03,20,09,06,8.10
2013,03,20,09,07,6.40
2013,03,20,09,08,3.20
2013,03,20,09,09,1.60
2013,03,20,09,10,1.60
2013,03,20,09,11,1.60
2013,03,20,09,12,8.10
2013,03,20,09,13,6.40
2013,03,20,09,14,6.40
2013,03,20,09,15,8.10
2013,03,20,09,16,9.60
2013,03,20,09,17,14.50
2013,03,20,09,18,6.40
2013,03,20,09,19,9.60
2013,03,20,09,20,14.50
2013,03,20,09,21,17.70
2013,03,20,09,22,25.70
2013,03,20,09,23,9.60
2013,03,20,09,24,9.60
2013,03,20,09,25,8.10
2013,03,20,09,26,11.30
2013,03,20,09,27,17.70
2013,03,20,09,28,12.90
2013,03,20,09,29,8.10
2013,03,20,09,30,11.30
2013,03,20,09,31,11.30
2013,03,20,09,32,14.50
2013,03,20,09,33,30.60
2013,03,20,09,34,11.30
2013,03,20,09,35,27.40
2013,03,20,09,36,24.20
2013,03,20,09,37,14.50
2013,03,20,09,38,11.30
2013,03,20,09,39,11.30
2013,03,20,09,40,16.10
2013,03,20,09,41,14.50
2013,03,20,09,42,25.70
2013,03,20,09,43,17.70
2013,03,20,09,44,19.30
2013,03,20,09,45,19.30
2013,03,20,09,46,16.10
2013,03,20,09,47,24.20
2013,03,20,09,48,11.30
2013,03,20,09,49,30.60
2013,03,20,09,50,11.30
2013,03,20,09,51,8.10
2013,03,20,09,52,16.10
2013,03,20,09,53,14.50
2013,03,20,09,54,11.30
2013,03,20,09,55,8.10
2013,03,20,09,56,14.50
2013,03,20,09,57,11.30
2013,03,20,09,58,17.70
2013,03,20,09,59,25.70
2013,03,20,10,00,24.20
2013,03,20,10,01,16.10
2013,03,20,10,02,20.90
2013,03,20,10,03,16.10
2013,03,20,10,04,24.20
2013,03,20,10,05,4.80
2013,03,20,10,06,19.30
2013,03,20,10,07,14.50
2013,03,20,10,08,11.30
2013,03,20,10,09,11.30
2013,03,20,10,10,24.20
2013,03,20,10,11,20.90
2013,03,20,10,12,11.30
2013,03,20,10,13,17.70
2013,03,20,10,14,20.90
2013,03,20,10,15,8.10
2013,03,20,10,16,24.20
2013,03,20,10,17,11.30
2013,03,20,10,18,16.10
2013,03,20,10,19,16.10
2013,03,20,10,20,16.10
2013,03,20,10,21,22.50
2013,03,20,10,22,22.50
2013,03,20,10,23,14.50
2013,03,20,10,24,17.70
2013,03,20,10,25,22.50
2013,03,20,10,26,14.50
2013,03,20,10,27,9.60
2013,03,20,10,28,16.10
2013,03,20,10,29,24.20
2013,03,20,10,30,19.30
2013,03,20,10,31,20.90
2013,03,20,10,32,24.20
2013,03,20,10,33,32.20
2013,03,20,10,34,40.20
2013,03,20,10,35,17.70
2013,03,20,10,36,8.10
2013,03,20,10,37,8.10
2013,03,20,10,38,8.10
2013,03,20,10,39,35.40
2013,03,20,10,40,14.50
2013,03,20,10,41,19.30
2013,03,20,10,42,22.50
2013,03,20,10,43,11.30
2013,03,20,10,44,9.60
2013,03,20,10,45,14.50
2013,03,20,10,46,25.70
2013,03,20,10,47,11.30
2013,03,20,10,48,12.90
2013,03,20,10,49,11.30
2013,03,20,10,50,20.90
2013,03,20,10,51,11.30
2013,03,20,10,52,24.20
2013,03,20,10,53,22.50
2013,03,20,10,54,22.50
2013,03,20,10,55,19.30
2013,03,20,10,56,25.70
2013,03,20,10,57,19.30
2013,03,20,10,58,25.70
2013,03,20,10,59,14.50
2013,03,20,11,00,17.70
2013,03,20,11,01,19.30
2013,03,20,11,02,16.10
2013,03,20,11,03,12.90
2013,03,20,11,04,6.40
2013,03,20,11,05,8.10
2013,03,20,11,06,12.90
2013,03,20,11,07,3.20
2013,03,20,11,08,6.40
2013,03,20,11,09,9.60
2013,03,20,11,10,9.60
2013,03,20,11,11,8.10
2013,03,20,11,12,8.10
2013,03,20,11,13,9.60
2013,03,20,11,14,14.50
2013,03,20,11,15,14.50
2013,03,20,11,16,17.70
2013,03,20,11,17,17.70
2013,03,20,11,18,12.90
2013,03,20,11,19,20.90
2013,03,20,11,20,17.70
2013,03,20,11,21,8.10
2013,03,20,11,22,11.30
2013,03,20,11,23,22.50
2013,03,20,11,24,17.70
2013,03,20,11,25,16.10
2013,03,20,11,26,16.10
2013,03,20,11,27,30.60
2013,03,20,11,28,14.50
2013,03,20,11,29,19.30
2013,03,20,11,30,14.50
2013,03,20,11,31,27.40
2013,03,20,11,32,24.20
2013,03,20,11,33,11.30
2013,03,20,11,34,14.50
2013,03,20,11,35,16.10
2013,03,20,11,36,32.20
2013,03,20,11,37,29.00
2013,03,20,11,38,19.30
2013,03,20,11,39,11.30
2013,03,20,11,40,16.10
2013,03,20,11,41,17.70
2013,03,20,11,42,9.60
2013,03,20,11,43,8.10
2013,03,20,11,44,16.10
2013,03,20,11,45,11.30
2013,03,20,11,46,9.60
2013,03,20,11,47,22.50
2013,03,20,11,48,16.10
2013,03,20,11,49,11.30
2013,03,20,11,50,8.10
2013,03,20,11,51,17.70
2013,03,20,11,52,17.70
2013,03,20,11,53,16.10
2013,03,20,11,54,35.40
2013,03,20,11,55,25.70
2013,03,20,11,56,9.60
2013,03,20,11,57,11.30
2013,03,20,11,58,11.30
2013,03,20,11,59,9.60
2013,03,20,12,00,11.30
2013,03,20,12,01,11.30
2013,03,20,12,02,16.10
2013,03,20,12,03,17.70
2013,03,20,12,04,11.30
2013,03,20,12,05,8.10
2013,03,20,12,06,24.20
2013,03,20,12,07,8.10
2013,03,20,12,08,6.40
2013,03,20,12,09,16.10
2013,03,20,12,10,11.30
2013,03,20,12,11,27.40
2013,03,20,12,12,24.20
2013,03,20,12,13,16.10
2013,03,20,12,14,11.30
2013,03,20,12,15,11.30
2013,03,20,12,16,19.30
2013,03,20,12,17,6.40
2013,03,20,12,18,11.30
2013,03,20,12,19,24.20
2013,03,20,12,20,12.90
2013,03,20,12,21,20.90
2013,03,20,12,22,33.80
2013,03,20,12,23,25.70
2013,03,20,12,24,11.30
2013,03,20,12,25,11.30
2013,03,20,12,26,9.60
2013,03,20,12,27,19.30
2013,03,20,12,28,11.30
2013,03,20,12,29,6.40
2013,03,20,12,30,16.10
2013,03,20,12,31,11.30
2013,03,20,12,32,29.00
2013,03,20,12,33,20.90
2013,03,20,12,34,16.10
2013,03,20,12,35,16.10
2013,03,20,12,36,17.70
2013,03,20,12,37,22.50
2013,03,20,12,38,25.70
2013,03,20,12,39,20.90
2013,03,20,12,40,6.40
2013,03,20,12,41,8.10
2013,03,20,12,42,12.90
2013,03,20,12,43,14.50
2013,03,20,12,44,11.30
2013,03,20,12,45,8.10
2013,03,20,12,46,9.60
2013,03,20,12,47,11.30
2013,03,20,12,48,8.10
2013,03,20,12,49,4.80
2013,03,20,12,50,3.20
2013,03,20,12,51,4.80
2013,03,20,12,52,6.40
2013,03,20,12,53,8.10
2013,03,20,12,54,9.60
2013,03,20,12,55,19.30
2013,03,20,12,56,17.70
2013,03,20,12,57,19.30
2013,03,20,12,58,24.20
2013,03,20,12,59,19.30
2013,03,20,13,00,29.00
2013,03,20,13,01,11.30
2013,03,20,13,02,9.60
2013,03,20,13,03,11.30
2013,03,20,13,04,16.10
2013,03,20,13,05,16.10
2013,03,20,13,06,6.40
2013,03,20,13,07,9.60
2013,03,20,13,08,12.90
2013,03,20,13,09,8.10
2013,03,20,13,10,12.90
2013,03,20,13,11,8.10
2013,03,20,13,12,8.10
2013,03,20,13,13,9.60
2013,03,20,13,14,9.60
2013,03,20,13,15,6.40
2013,03,20,13,16,17.70
2013,03,20,13,17,22.50
2013,03,20,13,18,8.10
2013,03,20,13,19,19.30
2013,03,20,13,20,9.60
2013,03,20,13,21,9.60
2013,03,20,13,22,9.60
2013,03,20,13,23,11.30
2013,03,20,13,24,11.30
2013,03,20,13,25,22.50
2013,03,20,13,26,16.10
2013,03,20,13,27,27.40
2013,03,20,13,28,14.50
2013,03,20,13,29,17.70
2013,03,20,13,30,12.90
2013,03,20,13,31,6.40
2013,03,20,13,32,11.30
2013,03,20,13,33,22.50
2013,03,20,13,34,17.70
2013,03,20,13,35,11.30
2013,03,20,13,36,16.10
2013,03,20,13,37,16.10
2013,03,20,13,38,11.30
2013,03,20,13,39,16.10
2013,03,20,13,40,17.70
2013,03,20,13,41,24.20
2013,03,20,13,42,8.10
2013,03,20,13,43,9.60
2013,03,20,13,44,12.90
2013,03,20,13,45,16.10
2013,03,20,13,46,17.70
2013,03,20,13,47,16.10
2013,03,20,13,48,16.10
2013,03,20,13,49,19.30
2013,03,20,13,50,8.10
2013,03,20,13,51,16.10
2013,03,20,13,52,16.10
2013,03,20,13,53,12.90
2013,03,20,13,54,17.70
2013,03,20,13,55,8.10
2013,03,20,13,56,9.60
2013,03,20,13,57,19.30
2013,03,20,13,58,20.90
2013,03,20,13,59,14.50
2013,03,20,14,00,32.20
2013,03,20,14,01,11.30
2013,03,20,14,02,11.30
2013,03,20,14,03,17.70
2013,03,20,14,04,19.30
2013,03,20,14,05,14.50
2013,03,20,14,06,17.70
2013,03,20,14,07,16.10
2013,03,20,14,08,16.10
2013,03,20,14,09,16.10
2013,03,20,14,10,24.20
2013,03,20,14,11,30.60
2013,03,20,14,12,11.30
2013,03,20,14,13,9.60
2013,03,20,14,14,22.50
2013,03,20,14,15,22.50
2013,03,20,14,16,17.70
2013,03,20,14,17,35.40
2013,03,20,14,18,22.50
2013,03,20,14,19,14.50
2013,03,20,14,20,19.30
2013,03,20,14,21,20.90
2013,03,20,14,22,20.90
2013,03,20,14,23,14.50
2013,03,20,14,24,16.10
2013,03,20,14,25,22.50
2013,03,20,14,26,24.20
2013,03,20,14,27,11.30
2013,03,20,14,28,9.60
2013,03,20,14,29,14.50
2013,03,20,14,30,17.70
2013,03,20,14,31,14.50
2013,03,20,14,32,17.70
2013,03,20,14,33,12.90
2013,03,20,14,34,33.80
2013,03,20,14,35,17.70
2013,03,20,14,36,16.10
2013,03,20,14,37,14.50
2013,03,20,14,38,16.10
2013,03,20,14,39,17.70
2013,03,20,14,40,24.20
2013,03,20,14,41,11.30
2013,03,20,14,42,16.10
2013,03,20,14,43,24.20
2013,03,20,14,44,29.00
2013,03,20,14,45,25.70
2013,03,20,14,46,16.10
2013,03,20,14,47,9.60
2013,03,20,14,48,29.00
2013,03,20,14,49,20.90
2013,03,20,14,50,35.40
2013,03,20,14,51,22.50
2013,03,20,14,52,19.30
2013,03,20,14,53,17.70
2013,03,20,14,54,30.60
2013,03,20,14,55,24.20
2013,03,20,14,56,37.00
2013,03,20,14,57,56.30
2013,03,20,14,58,35.40
2013,03,20,14,59,20.90
2013,03,20,15,00,22.50
2013,03,20,15,01,22.50
2013,03,20,15,02,20.90
2013,03,20,15,03,35.40
2013,03,20,15,04,40.20
2013,03,20,15,05,27.40
2013,03,20,15,06,29.00
2013,03,20,15,07,17.70
2013,03,20,15,08,27.40
2013,03,20,15,09,33.80
2013,03,20,15,10,29.00
2013,03,20,15,11,37.00
2013,03,20,15,12,25.70
2013,03,20,15,13,17.70
2013,03,20,15,14,25.70
2013,03,20,15,15,29.00
2013,03,20,15,16,37.00
2013,03,20,15,17,16.10
2013,03,20,15,18,20.90
2013,03,20,15,19,29.00
2013,03,20,15,20,48.30
2013,03,20,15,21,35.40
2013,03,20,15,22,20.90
2013,03,20,15,23,30.60
2013,03,20,15,24,22.50
2013,03,20,15,25,16.10
2013,03,20,15,26,24.20
2013,03,20,15,27,22.50
2013,03,20,15,28,29.00
2013,03,20,15,29,64.40
2013,03,20,15,30,40.20
2013,03,20,15,31,27.40
2013,03,20,15,32,37.00
2013,03,20,15,33,37.00
2013,03,20,15,34,45.10
2013,03,20,15,35,11.30
2013,03,20,15,36,25.70
2013,03,20,15,37,46.70
2013,03,20,15,38,16.10
2013,03,20,15,39,16.10
2013,03,20,15,40,29.00
2013,03,20,15,41,27.40
2013,03,20,15,42,16.10
2013,03,20,15,43,16.10
2013,03,20,15,44,16.10
2013,03,20,15,45,30.60
2013,03,20,15,46,20.90
2013,03,20,15,47,25.70
2013,03,20,15,48,25.70
2013,03,20,15,49,17.70
2013,03,20,15,50,17.70
2013,03,20,15,51,14.50
2013,03,20,15,52,14.50
2013,03,20,15,53,22.50
2013,03,20,15,54,20.90
2013,03,20,15,55,25.70
2013,03,20,15,56,14.50
2013,03,20,15,57,27.40
2013,03,20,15,58,19.30
2013,03,20,15,59,14.50
2013,03,20,16,00,14.50
2013,03,20,16,01,37.00
2013,03,20,16,02,35.40
2013,03,20,16,03,27.40
2013,03,20,16,04,27.40
2013,03,20,16,05,22.50
2013,03,20,16,06,29.00
2013,03,20,16,07,32.20
2013,03,20,16,08,14.50
2013,03,20,16,09,27.40
2013,03,20,16,10,16.10
2013,03,20,16,11,37.00
2013,03,20,16,12,17.70
2013,03,20,16,13,17.70
2013,03,20,16,14,11.30
2013,03,20,16,15,27.40
2013,03,20,16,16,32.20
2013,03,20,16,17,20.90
2013,03,20,16,18,8.10
2013,03,20,16,19,11.30
2013,03,20,16,20,25.70
2013,03,20,16,21,27.40
2013,03,20,16,22,22.50
2013,03,20,16,23,20.90
2013,03,20,16,24,19.30
2013,03,20,16,25,19.30
2013,03,20,20,31,6.40
2013,03,20,20,32,11.30
2013,03,20,20,33,9.60
2013,03,20,20,34,14.50
2013,03,20,20,35,3.20
2013,03,20,20,36,12.90
2013,03,20,20,37,19.30
2013,03,20,20,38,27.40
2013,03,20,20,39,20.90
2013,03,20,20,40,8.10
2013,03,20,20,41,14.50
2013,03,20,20,42,6.40
2013,03,20,20,43,9.60
2013,03,20,20,44,3.20
2013,03,20,20,46,16.10
2013,03,20,20,47,16.10
2013,03,20,20,48,20.90
2013,03,20,20,49,12.90
2013,03,20,20,50,14.50
2013,03,20,20,51,6.40
2013,03,20,20,52,6.40
2013,03,20,20,53,6.40
2013,03,20,20,54,16.10
2013,03,20,20,55,8.10
2013,03,20,20,56,9.60
2013,03,20,20,57,9.60
2013,03,20,20,58,1.60
2013,03,20,20,59,19.30
2013,03,20,21,00,14.50
2013,03,20,21,01,3.20
2013,03,20,21,02,11.30
2013,03,20,21,03,9.60
2013,03,20,21,04,8.10
2013,03,20,21,05,9.60
2013,03,20,21,06,17.70
2013,03,20,21,07,20.90
2013,03,20,21,08,17.70
2013,03,20,21,09,9.60
2013,03,20,21,10,11.30
2013,03,20,21,11,9.60
2013,03,20,21,12,8.10
2013,03,20,21,13,8.10
2013,03,20,21,14,6.40
2013,03,20,21,15,14.50
2013,03,20,21,16,9.60
2013,03,20,21,17,6.40
2013,03,20,21,18,25.70
2013,03,20,21,19,22.50
2013,03,20,21,20,19.30
2013,03,20,21,21,8.10
2013,03,20,21,22,16.10
2013,03,20,21,23,6.40
2013,03,20,21,24,9.60
2013,03,20,21,25,6.40
2013,03,20,21,26,8.10
2013,03,20,21,27,14.50
2013,03,20,21,28,14.50
2013,03,20,21,29,12.90
2013,03,20,21,30,6.40
2013,03,20,21,31,6.40
2013,03,20,21,32,6.40
2013,03,20,21,33,9.60
2013,03,20,21,34,9.60
2013,03,20,21,35,8.10
2013,03,20,21,36,16.10
2013,03,20,21,37,9.60
2013,03,20,21,38,14.50
2013,03,20,21,39,27.40
2013,03,20,21,40,16.10
2013,03,20,21,41,17.70
2013,03,20,21,42,9.60
2013,03,20,21,43,29.00
2013,03,20,21,44,20.90
2013,03,20,21,45,11.30
2013,03,20,21,46,4.80
2013,03,20,21,47,14.50
2013,03,20,21,48,11.30
2013,03,20,21,49,16.10
2013,03,20,21,50,6.40
2013,03,20,21,51,17.70
2013,03,20,21,52,11.30
2013,03,20,21,53,19.30
2013,03,20,21,54,9.60
2013,03,20,21,55,4.80
2013,03,20,21,56,19.30
2013,03,20,21,57,9.60
2013,03,20,21,58,9.60
2013,03,20,21,59,19.30
2013,03,20,22,00,8.10
2013,03,20,22,01,12.90
2013,03,20,22,02,12.90
2013,03,20,22,03,3.20
2013,03,20,22,04,8.10
2013,03,20,22,05,12.90
2013,03,20,22,06,11.30
2013,03,20,22,07,32.20
2013,03,20,22,08,8.10
2013,03,20,22,09,16.10
2013,03,20,22,10,9.60
2013,03,20,22,11,8.10
2013,03,20,22,12,11.30
2013,03,20,22,13,9.60
2013,03,20,22,14,22.50
2013,03,20,22,15,24.20
2013,03,20,22,16,3.20
2013,03,20,22,17,4.80
2013,03,20,22,18,9.60
2013,03,20,22,19,17.70
2013,03,20,22,20,16.10
2013,03,20,22,21,11.30
2013,03,20,22,22,8.10
2013,03,20,22,23,32.20
2013,03,20,22,24,9.60
2013,03,20,22,25,14.50
2013,03,20,22,26,20.90
2013,03,20,22,27,17.70
2013,03,20,22,28,9.60
2013,03,20,22,29,11.30
2013,03,20,22,30,16.10
2013,03,20,22,31,9.60
2013,03,20,22,32,1.60
2013,03,20,22,33,9.60
2013,03,20,22,34,8.10
2013,03,20,22,35,8.10
2013,03,20,22,36,4.80
2013,03,20,22,37,8.10
2013,03,20,22,38,8.10
2013,03,20,22,39,19.30
2013,03,20,22,40,14.50
2013,03,20,22,41,19.30
2013,03,20,22,42,6.40
2013,03,20,22,43,12.90
2013,03,20,22,44,19.30
2013,03,20,22,45,9.60
2013,03,20,22,46,14.50
2013,03,20,22,47,6.40
2013,03,20,22,48,11.30
2013,03,20,22,49,20.90
2013,03,20,22,50,11.30
2013,03,20,22,51,6.40
2013,03,20,22,52,9.60
2013,03,20,22,53,6.40
2013,03,20,22,54,8.10
2013,03,20,22,55,16.10
2013,03,20,22,56,6.40
2013,03,20,22,57,11.30
2013,03,20,22,58,11.30
2013,03,20,22,59,27.40
2013,03,20,23,00,9.60
2013,03,20,23,01,24.20
2013,03,20,23,02,8.10
2013,03,20,23,03,24.20
2013,03,20,23,04,17.70
2013,03,20,23,05,6.40
2013,03,20,23,06,8.10
2013,03,20,23,07,24.20
2013,03,20,23,08,16.10
2013,03,20,23,09,1.60
2013,03,20,23,10,9.60
2013,03,20,23,11,22.50
2013,03,20,23,12,19.30
2013,03,20,23,13,11.30
2013,03,20,23,14,17.70
2013,03,20,23,15,19.30
2013,03,20,23,16,16.10
2013,03,20,23,17,11.30
2013,03,20,23,18,6.40
2013,03,20,23,19,8.10
2013,03,20,23,20,17.70
2013,03,20,23,21,8.10
2013,03,20,23,22,4.80
2013,03,20,23,23,14.50
2013,03,20,23,24,9.60
2013,03,20,23,25,9.60
2013,03,20,23,26,19.30
2013,03,20,23,27,20.90
2013,03,20,23,28,19.30
2013,03,20,23,29,11.30
2013,03,20,23,30,19.30
2013,03,20,23,31,16.10
2013,03,20,23,32,8.10
2013,03,20,23,33,8.10
2013,03,20,23,34,4.80
2013,03,20,23,35,12.90
2013,03,20,23,36,9.60
2013,03,20,23,37,11.30
2013,03,20,23,38,16.10
2013,03,20,23,39,40.20